Chignik, AK

3:36 PM AKDT on July 27, 2017 (GMT -0800)
Chignik

Weather History for PAJC - December, 2012

Change the Weather History Date:

Thursday, December 27, 2012

  Actual Average Record
Temperature  
Mean Temperature 32 °F -  
Max Temperature 37 °F 31 °F 46 °F (2000)
Min Temperature 28 °F 25 °F 15 °F (2010)
Degree Days  
Heating Degree Days 32    
Moisture  
Dew Point 30 °F    
Average Humidity 87    
Maximum Humidity 93    
Minimum Humidity 75    
Precipitation  
Precipitation 0.43 in - - ()
Sea Level Pressure  
Sea Level Pressure 29.03 in    
Wind  
Wind Speed 3 mph (ENE)    
Max Wind Speed 8 mph    
Max Gust Speed -    
Visibility 6 miles    
Events      
Averages and records for this station are not official NWS values.
T = Trace of Precipitation, MM = Missing Value Source: NWS Daily Summary

Daily Weather History Graph

Daily Weather History Graph

Search for Another Location

Airport or City:

Trip Planner

Search our weather history database for the weather conditions in past years. The results will help you decide how hot, cold, wet, or windy it might be!

Date:

Astronomy

Dec. 27, 2012 Rise Set
Actual Time 10:07 AM AKST 5:02 PM AKST
Civil Twilight 9:19 AM AKST 5:50 PM AKST
Nautical Twilight 8:29 AM AKST 6:40 PM AKST
Astronomical Twilight 7:43 AM AKST 7:26 PM AKST
Moon 5:04 PM AKST 9:19 AM AKST
Length of Visible Light 8h 31m
Length of Day
6h 55m
Full, 100% of the Moon is Illuminated
Dec 27
Full
Dec 28
Full
Jan 4
Last Quarter
Jan 11
New
Jan 18
First Quarter

Hourly Weather History & Observations

Time (AKST) Temp. Windchill Dew Point Humidity Pressure Visibility Wind Dir Wind Speed Gust Speed Precip Events Conditions
12:16 AM 37.4 °F 32.8 °F 33.8 °F 87% 28.76 in 9.0 mi ENE 5.8 mph - 0.01 in   Overcast
12:36 AM 37.4 °F 32.1 °F 33.8 °F 87% 28.77 in 8.0 mi ENE 6.9 mph - 0.01 in   Overcast
12:56 AM 37.4 °F 31.4 °F 33.8 °F 87% 28.78 in 7.0 mi ENE 8.1 mph - 0.01 in   Overcast
1:16 AM 37.4 °F 33.8 °F 33.8 °F 87% 28.79 in 4.0 mi ENE 4.6 mph - 0.02 in   Overcast
1:36 AM 37.4 °F 34.9 °F 33.8 °F 87% 28.79 in 7.0 mi East 3.5 mph - 0.03 in   Overcast
1:56 AM 37.4 °F - 33.8 °F 87% 28.80 in 5.0 mi Calm Calm - 0.05 in   Overcast
2:16 AM 37.4 °F - 33.8 °F 87% 28.81 in 5.0 mi Calm Calm - 0.03 in   Overcast
2:36 AM 37.4 °F - 33.8 °F 87% 28.82 in 5.0 mi Calm Calm - 0.07 in   Overcast
2:56 AM 37.4 °F 34.9 °F 33.8 °F 87% 28.83 in 7.0 mi NW 3.5 mph - 0.11 in   Overcast
3:16 AM 37.4 °F 34.9 °F 33.8 °F 87% 28.84 in 7.0 mi SSE 3.5 mph - 0.03 in   Overcast
3:36 AM 35.6 °F 32.8 °F 33.8 °F 93% 28.84 in 9.0 mi ESE 3.5 mph - 0.06 in   Overcast
3:56 AM 35.6 °F - 33.8 °F 93% 28.85 in 10.0 mi Calm Calm - 0.08 in   Overcast
4:16 AM 35.6 °F 31.7 °F 33.8 °F 93% 28.86 in 6.0 mi South 4.6 mph - 0.02 in   Overcast
4:36 AM 35.6 °F 32.8 °F 32.0 °F 87% 28.87 in 4.0 mi South 3.5 mph - 0.05 in   Overcast
4:56 AM 35.6 °F 30.7 °F 32.0 °F 87% 28.88 in 7.0 mi SW 5.8 mph - 0.06 in   Overcast
5:16 AM 35.6 °F 31.7 °F 32.0 °F 87% 28.89 in 4.0 mi WSW 4.6 mph - 0.01 in   Overcast
5:36 AM 35.6 °F - 32.0 °F 87% 28.89 in 5.0 mi Calm Calm - 0.02 in   Overcast
5:56 AM 35.6 °F 32.8 °F 32.0 °F 87% 28.90 in 5.0 mi SW 3.5 mph - 0.02 in   Overcast
6:16 AM 35.6 °F 30.7 °F 30.2 °F 81% 28.91 in 10.0 mi SW 5.8 mph - N/A   Overcast
6:36 AM 35.6 °F 30.7 °F 32.0 °F 87% 28.93 in 4.0 mi WSW 5.8 mph - 0.01 in   Overcast
6:56 AM 35.6 °F 29.2 °F 30.2 °F 81% 28.93 in 8.0 mi WSW 8.1 mph - 0.02 in   Overcast
7:16 AM 33.8 °F - 30.2 °F 87% 28.94 in 10.0 mi Calm Calm - 0.01 in   Overcast
7:36 AM 33.8 °F - 30.2 °F 87% 28.94 in 7.0 mi Calm Calm - 0.01 in   Overcast
7:56 AM 33.8 °F - 30.2 °F 87% 28.95 in 10.0 mi Calm Calm - 0.01 in   Overcast
8:16 AM 33.8 °F 30.8 °F 30.2 °F 87% 28.96 in 10.0 mi South 3.5 mph - N/A   Overcast
8:36 AM 33.8 °F - 30.2 °F 87% 28.97 in 10.0 mi Calm Calm - N/A   Overcast
8:56 AM 33.8 °F 30.8 °F 30.2 °F 87% 28.98 in 10.0 mi ENE 3.5 mph - N/A   Overcast
9:16 AM 33.8 °F - 30.2 °F 87% 28.98 in 10.0 mi Calm Calm - N/A   Overcast
9:36 AM 35.6 °F 31.7 °F 28.4 °F 75% 29.00 in 10.0 mi SSW 4.6 mph - N/A   Overcast
10:16 AM 33.8 °F - 30.2 °F 87% 29.02 in 10.0 mi Calm Calm - N/A   Overcast
10:36 AM 33.8 °F 30.8 °F 30.2 °F 87% 29.03 in 10.0 mi SE 3.5 mph - N/A   Overcast
10:56 AM 35.6 °F - 30.2 °F 81% 29.03 in 10.0 mi Calm Calm - N/A   Overcast
11:16 AM 35.6 °F - 30.2 °F 81% 29.04 in 10.0 mi Calm Calm - N/A   Overcast
11:36 AM 33.8 °F - 30.2 °F 87% 29.05 in 10.0 mi Calm Calm - N/A   Overcast
11:56 AM 33.8 °F - 30.2 °F 87% 29.05 in 10.0 mi Calm Calm - N/A   Overcast
12:16 PM 33.8 °F 29.6 °F 30.2 °F 87% 29.06 in 10.0 mi NE 4.6 mph - N/A   Overcast
12:36 PM 33.8 °F 29.6 °F 28.4 °F 81% 29.07 in 10.0 mi NE 4.6 mph - 0.01 in   Overcast
12:56 PM 33.8 °F 30.8 °F 28.4 °F 81% 29.08 in 5.0 mi NE 3.5 mph - 0.01 in   Overcast
1:16 PM 33.8 °F - 30.2 °F 87% 29.08 in 10.0 mi Calm Calm - N/A   Overcast
1:36 PM 33.8 °F - 28.4 °F 81% 29.09 in 4.0 mi Calm Calm - N/A   Overcast
1:56 PM 33.8 °F - 28.4 °F 81% 29.10 in 2.0 mi Calm Calm - 0.01 in   Overcast
2:16 PM 33.8 °F 30.8 °F 28.4 °F 81% 29.10 in 2.0 mi NE 3.5 mph - N/A   Overcast
2:36 PM 32.0 °F 27.5 °F 28.4 °F 87% 29.11 in 1.5 mi NNE 4.6 mph - N/A   Overcast
2:56 PM 32.0 °F 27.5 °F 28.4 °F 87% 29.11 in 1.8 mi NNE 4.6 mph - N/A   Overcast
3:16 PM 32.0 °F 25.6 °F 28.4 °F 87% 29.12 in 3.0 mi North 6.9 mph - 0.01 in   Overcast
3:36 PM 32.0 °F - 28.4 °F 87% 29.12 in 5.0 mi Calm Calm - 0.01 in   Overcast
3:56 PM 32.0 °F - 28.4 °F 87% 29.13 in 3.0 mi Calm Calm - 0.01 in   Overcast
4:16 PM 32.0 °F - 28.4 °F 87% 29.14 in 2.5 mi Calm Calm - 0.01 in   Overcast
4:36 PM 32.0 °F 28.7 °F 28.4 °F 87% 29.15 in 1.8 mi NE 3.5 mph - 0.01 in   Overcast
4:56 PM 32.0 °F 28.7 °F 28.4 °F 87% 29.15 in 2.5 mi NE 3.5 mph - 0.01 in   Overcast
5:16 PM 32.0 °F - 28.4 °F 87% 29.15 in 2.0 mi Calm Calm - N/A   Overcast
5:36 PM 32.0 °F 28.7 °F 28.4 °F 87% 29.15 in 2.5 mi NE 3.5 mph - N/A   Overcast
5:56 PM 32.0 °F 28.7 °F 28.4 °F 87% 29.16 in 1.5 mi NNE 3.5 mph - 0.01 in   Overcast
6:16 PM 32.0 °F 27.5 °F 28.4 °F 87% 29.17 in 2.5 mi NE 4.6 mph - 0.01 in   Overcast
6:36 PM 32.0 °F 28.7 °F 28.4 °F 87% 29.18 in 3.0 mi NE 3.5 mph - 0.01 in   Overcast
6:56 PM 32.0 °F 28.7 °F 28.4 °F 87% 29.18 in 4.0 mi North 3.5 mph - 0.01 in   Overcast
7:16 PM 30.2 °F - 28.4 °F 93% 29.17 in 9.0 mi Calm Calm - 0.01 in   Overcast
7:36 PM 30.2 °F - 28.4 °F 93% 29.18 in 3.0 mi Calm Calm - 0.01 in   Overcast
7:56 PM 30.2 °F - 28.4 °F 93% 29.18 in 1.2 mi Calm Calm - 0.01 in   Overcast
8:16 PM 30.2 °F - 28.4 °F 93% 29.18 in 2.5 mi Calm Calm - N/A   Overcast
8:36 PM 30.2 °F - 28.4 °F 93% 29.19 in 0.5 mi Calm Calm - N/A   Overcast
8:56 PM 30.2 °F - 26.6 °F 86% 29.19 in 0.8 mi Calm Calm - N/A   Overcast
9:16 PM 30.2 °F - 26.6 °F 86% 29.20 in 3.0 mi Calm Calm - N/A   Overcast
9:36 PM 28.4 °F - 26.6 °F 93% 29.19 in 10.0 mi Calm Calm - N/A   Scattered Clouds
9:56 PM 28.4 °F - 24.8 °F 86% 29.19 in 10.0 mi Calm Calm - N/A   Mostly Cloudy
10:16 PM 28.4 °F - 26.6 °F 93% 29.20 in 10.0 mi Calm Calm - N/A   Overcast
10:36 PM 28.4 °F - 24.8 °F 86% 29.20 in 10.0 mi Calm Calm - N/A   Scattered Clouds
10:56 PM 28.4 °F - 24.8 °F 86% 29.21 in 10.0 mi Calm Calm - N/A   Scattered Clouds
11:16 PM 28.4 °F - 26.6 °F 93% 29.21 in 10.0 mi Calm Calm - N/A   Overcast
11:36 PM 28.4 °F - 24.8 °F 86% 29.19 in 7.0 mi Calm Calm - N/A   Mostly Cloudy
11:56 PM 28.4 °F - 26.6 °F 93% 29.20 in 5.0 mi Calm Calm - N/A   Mostly Cloudy